TimeCDT,TemperatureF,Dew PointF,Humidity,Sea Level PressureIn,VisibilityMPH,Wind Direction,Wind SpeedMPH,Gust SpeedMPH,PrecipitationIn,Events,Conditions,WindDirDegrees,DateUTC
12:55 AM,44.1,37.9,79,29.92,9.0,ESE,6.9,-,N/A,,Clear,120,2012-11-02 05:55:00
1:55 AM,46.0,39.0,76,29.90,8.0,East,4.6,-,N/A,,Clear,100,2012-11-02 06:55:00
2:55 AM,43.0,37.9,82,29.90,7.0,East,6.9,-,N/A,,Clear,80,2012-11-02 07:55:00
3:55 AM,41.0,37.9,89,29.89,5.0,East,5.8,-,N/A,,Clear,100,2012-11-02 08:55:00
4:55 AM,41.0,37.9,89,29.88,5.0,East,6.9,-,N/A,,Clear,100,2012-11-02 09:55:00
5:55 AM,39.9,37.9,93,29.88,5.0,East,8.1,-,N/A,,Clear,90,2012-11-02 10:55:00
6:55 AM,39.9,37.0,89,29.87,5.0,East,9.2,-,N/A,,Clear,100,2012-11-02 11:55:00
7:55 AM,39.9,37.0,89,29.87,6.0,East,8.1,-,N/A,,Clear,100,2012-11-02 12:55:00
8:55 AM,42.1,39.0,89,29.87,5.0,East,9.2,-,N/A,,Clear,100,2012-11-02 13:55:00
9:55 AM,46.0,39.9,79,29.86,7.0,East,12.7,-,N/A,,Clear,100,2012-11-02 14:55:00
10:55 AM,52.0,42.1,69,29.85,10.0,ESE,12.7,-,N/A,,Clear,120,2012-11-02 15:55:00
11:55 AM,55.9,42.1,60,29.87,10.0,ENE,6.9,-,N/A,,Clear,70,2012-11-02 16:55:00
12:55 PM,59.0,42.1,53,29.85,10.0,ENE,8.1,-,N/A,,Clear,70,2012-11-02 17:55:00
1:55 PM,61.0,42.1,50,29.84,10.0,ENE,8.1,-,N/A,,Clear,60,2012-11-02 18:55:00
2:55 PM,63.0,41.0,45,29.85,10.0,ENE,4.6,-,N/A,,Clear,70,2012-11-02 19:55:00
3:55 PM,63.0,41.0,45,29.86,10.0,NNE,3.5,-,N/A,,Clear,30,2012-11-02 20:55:00
4:55 PM,62.1,39.9,44,29.88,10.0,North,10.4,-,N/A,,Clear,10,2012-11-02 21:55:00
5:55 PM,59.0,39.9,49,29.91,10.0,North,10.4,-,N/A,,Clear,360,2012-11-02 22:55:00
6:55 PM,55.0,39.0,55,29.95,10.0,North,9.2,-,N/A,,Clear,350,2012-11-02 23:55:00
7:55 PM,52.0,37.0,57,29.99,10.0,North,13.8,20.7,N/A,,Clear,360,2012-11-03 00:55:00
8:55 PM,50.0,35.1,57,30.02,10.0,North,10.4,-,N/A,,Clear,350,2012-11-03 01:55:00
9:55 PM,46.0,34.0,63,30.05,10.0,North,10.4,-,N/A,,Clear,360,2012-11-03 02:55:00
10:55 PM,44.1,33.1,65,30.07,10.0,North,9.2,-,N/A,,Clear,350,2012-11-03 03:55:00
11:55 PM,42.1,33.1,70,30.08,10.0,North,11.5,-,N/A,,Clear,360,2012-11-03 04:55:00